SL-14 DEB

Satellite information

Favourite Embed

Satellite Type and Status

DEBRISIN ORBIT

Key statistics

Satellite SL-14 DEB at a glance.

Uptime

13892

Days in orbit

Revolutions

≈ 14.6

Per day

Orbit

LEO

Low Earth Orbit

Inclination

82.2

Latest

Satellite identification and parameters

Extended collection of information and parameters for SL-14 DEB.

Object identification

Identified? True

Debris? True

Object name: SL-14 DEB

International designator: 1987-068CC

Object number (NORAD): 25454

Object ID (CCSDS): 25454

Country: COMMONWEALTH OF INDEPENDENT STATES (CIS)

Current information (Y/N): Y

RCS size: SMALL

Orbital parameters

Period: 98.616 minutes

Inclination: 82.1509 deg

SMA: 7070.63 km

Apoapsis: 717.044 km

Periapsis: 667.945 km

RAAN: 354.1617 deg

Eccentricy: 0.00347202

Argument of periapsis: 114.0799 deg

Mean anomaly: 246.4042 deg

Mean motion: 14.60211072 rev/day

Mean motion (dot): 0.00034826 rev/day2

B* drag term: 0.0071311984 1/REarth

Two-line elements (TLE)

Creation date: Aug. 29, 2025, 2:15 a.m.

Reference frame: TEME

Reference center: EARTH

Epoch: Aug. 28, 2025, 5:47 p.m. UTC

TLE line 0: 0 SL-14 DEB

TLE line 1: 1 25454U 87068CC 25240.74156813 .00034826 00000-0 71312-2 0 9996

TLE line 2: 2 25454 82.1509 354.1617 0034720 114.0799 246.4042 14.60211072598683

Live tracking on map

Real-time ground track for satellite SL-14 DEB.

In-orbit conjunctions

A list of the most updated potential collisions computed for object SL-14 DEB.

Target Orbit TCA Probability of collision Miss distance Type
CZ-4 DEB SSO 2025-06-18 00:12:56 0.000251671 158.0 (m) DEBRIS
CBERS 1 SSO 2024-10-12 18:16:28 0.0001444583 928.0 (m) PAYLOAD
DMSP 5D-2 F13 DEB SSO 2024-09-26 21:55:57 0.0001578954 815.0 (m) DEBRIS

Associated space launch

Second generation soviet meteorological satellite

SL-14 DEB was lifted into orbit during the mission ‘Tsiklon-3 | Meteor-2 16’, on board a Tsiklon-3 space rocket.

The launch took place on Aug. 18, 1987, 2:27 a.m. from 32/1.

For more information about the launch, click the button.

Launch to space Tsiklon-3 | Meteor-2 16
Tsiklon-3 | Meteor-2 16

Agency: N/A

Status: Launch Successful

Launch date: Aug. 18, 1987, 2:27 a.m. UTC

Rocket: Tsiklon-3

Launch pad: 32/1

Location: Plesetsk Cosmodrome, Russian Federation

...

Latest news about this satellite

There are no fresh news available about this satellite. Check back as we update our databases every day.


Newsletter sign-up

Weekly statistics, charts and insights to help you stay on top of the space industry.